Skip Page Navigation
NASA JPL Caltech
NASA Logo - Jet Propulsion Laboratory + View the NASA Portal
+ Near-Earth Object (NEO) Program
Search JPL
JPL Home Earth Solar System Stars & Galaxies Technology
JPL Solar System Dynamics
BODIES ORBITS EPHEMERIDES TOOLS PHYSICAL DATA DISCOVERY FAQ SITE MAP
JPL Small-Body Database Browser
Search: [ help ]  
7701 Zrzavy (1990 TX8)
Classification: Main-belt Asteroid          SPK-ID: 2007701
Ephemeris | Orbit Diagram | Orbital Elements | Physical Parameters | Discovery Circumstances ]

[ show orbit diagram ]
Orbital Elements at Epoch 2457000.5 (2014-Dec-09.0) TDB
Reference: JPL 13 (heliocentric ecliptic J2000)
 Element Value Uncertainty (1-sigma)   Units 
e .2439653832811639 7.5495e-08  
a 2.686332007385232 1.63e-08 AU
q 2.030959989583035 2.0249e-07 AU
i 3.307999704901476 8.1951e-06 deg
node 19.74681705928413 8.6848e-05 deg
peri 1.432290272339424 8.7468e-05 deg
M 173.1022429333233 1.0362e-05 deg
tp 2456227.217554374163
(2012-Oct-26.71755437)
4.4903e-05 JED
period 1608.19222043547
4.40
1.4637e-05
4.007e-08
d
yr
n .2238538375111144 2.0375e-09 deg/d
Q 3.341704025187428 2.0277e-08 AU
  Orbit Determination Parameters
   # obs. used (total)      693  
   data-arc span      8995 days (24.63 yr)  
   first obs. used      1990-09-25  
   last obs. used      2015-05-12  
   planetary ephem.      DE431  
   SB-pert. ephem.      SB431-BIG16  
   condition code      0  
   fit RMS      .5681  
   data source      ORB  
   producer      Otto Matic  
   solution date      2015-Jun-04 15:59:12  

Additional Information
 Earth MOID = 1.0337 AU 
 T_jup = 3.328 
[ show covariance matrix ]

Ephemeris | Orbit Diagram | Orbital Elements | Physical Parameters | Discovery Circumstances ]

Physical Parameter Table
Parameter Symbol Value Units Sigma Reference Notes
absolute magnitude H 14.6 mag n/a MPO259395  

7701 Zrzavý           Discovered 1990 Oct. 14 by A. Mrkos at Klet.
Jan Zrzavý (1890-1977) was a Czech painter, graphic artist and illustrator, known for imaginary lyric landscapes and figures. The name was suggested by J. Ticha.
NOTE: some special characters may not display properly (any characters within {} are an attempt to place the proper accent above a character)
Reference: 20010309/MPCPages.arcLast Updated: 2009-05-11

Alternate Designations
 1990 TX8 = 1992 EY19 
Ephemeris | Orbit Diagram | Orbital Elements | Physical Parameters | Discovery Circumstances ]
ABOUT SSD CREDITS/AWARDS PRIVACY/COPYRIGHT GLOSSARY LINKS
FirstGov 2015-Jul-29 22:03 UT
(server date/time)  
NASA Home Page
Site Manager:   Ryan S. Park
Webmaster  Alan B. Chamberlin